Skagway, AK

9:42 PM AKST on November 21, 2017 (GMT -0900)
Skagway

Weather History for PAGY - April, 2012

Change the Weather History Date:

Wednesday, April 4, 2012

  Actual Average Record
Temperature  
Mean Temperature 40 °F -  
Max Temperature 46 °F 41 °F 59 °F (2017)
Min Temperature 34 °F 28 °F 21 °F (1997)
Degree Days  
Heating Degree Days 24    
Moisture  
Dew Point 31 °F    
Average Humidity 70    
Maximum Humidity 87    
Minimum Humidity 52    
Precipitation  
Precipitation 0.00 in - - ()
Sea Level Pressure  
Sea Level Pressure 30.00 in    
Wind  
Wind Speed 5 mph (SSW)    
Max Wind Speed 21 mph    
Max Gust Speed -    
Visibility 9 miles    
Events      
Averages and records for this station are not official NWS values.
T = Trace of Precipitation, MM = Missing Value Source: NWS Daily Summary

Daily Weather History Graph

Daily Weather History Graph

Search for Another Location

Airport or City:

Trip Planner

Search our weather history database for the weather conditions in past years. The results will help you decide how hot, cold, wet, or windy it might be!

Date:

Astronomy

Apr. 04, 2012 Rise Set
Actual Time 6:16 AM AKDT 7:53 PM AKDT
Civil Twilight 5:33 AM AKDT 8:36 PM AKDT
Nautical Twilight 4:39 AM AKDT 9:30 PM AKDT
Astronomical Twilight 3:36 AM AKDT 10:35 PM AKDT
Moon 5:36 PM AKDT (4/4) 5:10 AM AKDT (4/4)
Length of Visible Light 15h 02m
Length of Day
13h 36m
Waxing Gibbous, 94% of the Moon is Illuminated
Apr 4
Waxing Gibbous
Apr 6
Full
Apr 13
Last Quarter
Apr 20
New
Apr 29
First Quarter

Hourly Weather History & Observations

Time (AKDT) Temp. Windchill Dew Point Humidity Pressure Visibility Wind Dir Wind Speed Gust Speed Precip Events Conditions
12:53 AM 37.0 °F - 30.9 °F 79% 29.81 in 10.0 mi Calm Calm - N/A   Scattered Clouds
1:53 AM 37.0 °F - 30.9 °F 79% 29.82 in 10.0 mi Calm Calm - N/A   Overcast
2:53 AM 37.0 °F - 30.9 °F 79% 29.83 in 10.0 mi Calm Calm - N/A   Overcast
3:53 AM 35.6 °F - 30.2 °F 81% 29.86 in 10.0 mi Calm Calm - N/A   Overcast
4:53 AM 36.0 °F - 30.9 °F 82% 29.88 in 10.0 mi Calm Calm - N/A   Overcast
5:53 AM 36.0 °F - 30.9 °F 82% 29.90 in 10.0 mi Calm Calm - 0.00 in   Overcast
6:53 AM 37.0 °F 34.5 °F 30.9 °F 79% 29.92 in 10.0 mi ESE 3.5 mph - N/A   Overcast
7:53 AM 36.0 °F 33.3 °F 30.9 °F 82% 29.95 in 3.0 mi NE 3.5 mph - N/A   Haze
7:57 AM 35.6 °F - 30.2 °F 81% 29.95 in 1.8 mi Calm Calm - N/A   Haze
8:16 AM 35.6 °F - 32.0 °F 87% 29.95 in 3.0 mi Calm Calm - N/A   Mostly Cloudy
8:53 AM 37.0 °F - 33.1 °F 86% 29.96 in 10.0 mi Calm Calm - N/A   Overcast
9:53 AM 39.0 °F - 32.0 °F 76% 29.98 in 10.0 mi Calm Calm - N/A   Overcast
10:53 AM 41.0 °F 32.5 °F 33.1 °F 73% 29.98 in 10.0 mi SSW 17.3 mph - N/A   Overcast
11:53 AM 42.1 °F 33.1 °F 32.0 °F 67% 30.00 in 10.0 mi SSW 20.7 mph - N/A   Mostly Cloudy
12:53 PM 44.1 °F 35.9 °F 30.9 °F 60% 30.02 in 10.0 mi SSW 19.6 mph - N/A   Mostly Cloudy
1:53 PM 44.1 °F 35.7 °F 30.9 °F 60% 30.02 in 10.0 mi SSW 20.7 mph - N/A   Overcast
2:53 PM 46.0 °F 39.3 °F 30.0 °F 54% 30.04 in 10.0 mi SSW 16.1 mph - N/A   Overcast
3:53 PM 46.9 °F - 30.9 °F 54% 30.05 in 10.0 mi SSW 19.6 mph - N/A   Overcast
4:53 PM 46.9 °F - 30.0 °F 52% 30.06 in 10.0 mi SSW 17.3 mph - N/A   Mostly Cloudy
5:53 PM 46.0 °F 39.6 °F 30.0 °F 54% 30.08 in 10.0 mi SSW 15.0 mph - N/A   Partly Cloudy
6:53 PM 45.0 °F 38.9 °F 28.9 °F 53% 30.10 in 10.0 mi South 12.7 mph - N/A   Partly Cloudy
7:53 PM 44.1 °F 36.8 °F 30.0 °F 58% 30.11 in 10.0 mi SSW 16.1 mph - N/A   Clear
8:53 PM 44.1 °F 37.1 °F 28.9 °F 55% 30.14 in 10.0 mi SSW 15.0 mph - N/A   Clear
9:53 PM 37.9 °F 32.1 °F 28.0 °F 68% 30.16 in 10.0 mi NE 8.1 mph - N/A   Clear
10:53 PM 36.0 °F 33.3 °F 28.0 °F 73% 30.18 in 10.0 mi NE 3.5 mph - N/A   Clear
11:53 PM 34.0 °F - 28.0 °F 79% 30.20 in 10.0 mi Calm Calm - N/A   Clear